Weather History for CYMX - July, 2013

Change the Weather History Date:

Thursday, July 11, 2013

  Actual Average Record
Temperature  
Mean Temperature 70 °F -  
Max Temperature 77 °F 74 °F 93 °F (2005)
Min Temperature 60 °F 57 °F 48 °F (2002)
Cooling Degree Days 4    
Growing Degree Days 20 (Base 50)    
Moisture  
Dew Point 60 °F    
Average Humidity 74    
Maximum Humidity 100    
Minimum Humidity 47    
Precipitation  
Precipitation 0.00 in - - ()
Sea Level Pressure  
Sea Level Pressure 29.88 in    
Wind  
Wind Speed 5 mph ()    
Max Wind Speed 10 mph    
Max Gust Speed -    
Averages and records for this station are not official NWS values.
T = Trace of Precipitation, MM = Missing Value Source: Averaged Metar Reports

Daily Weather History Graph

Daily Weather History Graph

Search for Another Location

Airport or City:

Trip Planner

Search our weather history database for the weather conditions in past years. The results will help you decide how hot, cold, wet, or windy it might be!

Date:

Astronomy

Jul. 11, 2013 Rise Set
Actual Time 5:17 AM EDT 8:45 PM EDT
Civil Twilight 4:40 AM EDT 9:21 PM EDT
Nautical Twilight 3:52 AM EDT 10:10 PM EDT
Astronomical Twilight 2:48 AM EDT 11:13 PM EDT
Moon 8:46 AM EDT (7/11) 10:09 PM EDT (7/11)
Length of Visible Light 16h 41m
Length of Day
15h 27m
Waxing Crescent, 10% of the Moon is Illuminated
Jul 11
Waxing Crescent
Jul 15
First Quarter
Jul 22
Full
Jul 29
Last Quarter
Aug 6
New

Hourly Weather History & Observations

Time (EDT) Temp. Dew Point Humidity Pressure Visibility Wind Dir Wind Speed Gust Speed Precip Events Conditions
12:00 AM 66.2 °F 64.4 °F 94% 29.70 in 25.0 mi SSW 4.6 mph - N/A   Scattered Clouds
1:00 AM 66.2 °F 64.4 °F 94% 29.71 in 25.0 mi SSW 5.8 mph - N/A   Mostly Cloudy
2:00 AM 66.2 °F 66.2 °F 100% 29.71 in 25.0 mi West 2.3 mph - N/A   Mostly Cloudy
3:00 AM 66.2 °F 64.4 °F 94% 29.73 in 25.0 mi Variable 2.3 mph - N/A   Mostly Cloudy
4:00 AM 64.4 °F 64.4 °F 100% 29.75 in 25.0 mi WSW 3.5 mph - N/A   Scattered Clouds
5:00 AM 64.4 °F 62.6 °F 94% 29.78 in 25.0 mi WSW 3.5 mph - N/A   Scattered Clouds
6:00 AM 62.6 °F 62.6 °F 100% 29.79 in 25.0 mi West 4.6 mph - N/A   Scattered Clouds
7:00 AM 66.2 °F 62.6 °F 88% 29.82 in 25.0 mi Variable 2.3 mph - N/A   Partly Cloudy
8:00 AM 68.0 °F 62.6 °F 83% 29.85 in 45.0 mi West 6.9 mph - N/A   Scattered Clouds
9:00 AM 68.0 °F 60.8 °F 78% 29.87 in 45.0 mi NNW 5.8 mph - N/A   Partly Cloudy
10:00 AM 69.8 °F 59.0 °F 68% 29.89 in 45.0 mi North 5.8 mph - N/A   Scattered Clouds
11:00 AM 71.6 °F 55.4 °F 57% 29.90 in 45.0 mi North 5.8 mph - N/A   Partly Cloudy
12:00 PM 73.4 °F 59.0 °F 61% 29.91 in 45.0 mi WNW 2.3 mph - N/A   Scattered Clouds
1:00 PM 77.0 °F 59.0 °F 54% 29.91 in 45.0 mi NNW 8.1 mph - N/A   Scattered Clouds
2:00 PM 75.2 °F 57.2 °F 53% 29.92 in 45.0 mi NW 9.2 mph - N/A   Scattered Clouds
3:00 PM 77.0 °F 55.4 °F 47% 29.93 in 45.0 mi NW 10.4 mph - N/A   Scattered Clouds
4:00 PM 77.0 °F 57.2 °F 50% 29.95 in 45.0 mi North 6.9 mph - N/A   Mostly Cloudy
5:00 PM 73.4 °F 55.4 °F 53% 29.96 in 45.0 mi NNW 10.4 mph - N/A   Mostly Cloudy
6:00 PM 71.6 °F 59.0 °F 64% 29.97 in 45.0 mi WNW 4.6 mph - N/A   Scattered Clouds
7:00 PM 73.4 °F 57.2 °F 57% 29.99 in 45.0 mi NW 8.1 mph - N/A   Scattered Clouds
8:00 PM 71.6 °F 57.2 °F 60% 30.01 in 45.0 mi North 9.2 mph - N/A   Scattered Clouds
9:00 PM 68.0 °F 55.4 °F 64% 30.02 in 25.0 mi North 6.9 mph - N/A   Partly Cloudy
10:00 PM 64.4 °F 55.4 °F 73% 30.04 in 25.0 mi North 6.9 mph - N/A   Partly Cloudy
11:00 PM 60.8 °F 55.4 °F 82% 30.06 in 25.0 mi East 3.5 mph - N/A   Partly Cloudy